Weather reports worldwide

Advertisment
Europlatform, Netherlands (6321): temperature & dewpoint: 24.09.2020 17:00:00 - 30.09.2020 17:00:00 (CEST)Europlatform, Netherlands (6321): water temperature: 24.09.2020 17:00:00 - 30.09.2020 17:00:00 (CEST)Europlatform, Netherlands (6321): wind speed & gusts: 24.09.2020 17:00:00 - 30.09.2020 17:00:00 (CEST)Europlatform, Netherlands (6321): wind direction: 24.09.2020 17:00:00 - 30.09.2020 17:00:00 (CEST)Europlatform, Netherlands (6321): reduced air pressure: 24.09.2020 17:00:00 - 30.09.2020 17:00:00 (CEST)Europlatform, Netherlands (6321): visibility: 24.09.2020 17:00:00 - 30.09.2020 17:00:00 (CEST)
Date & Time tt [°C] td [°C] tw [°C] ff [km/h] ff [kn] fx [km/h] fx [kn] dd ppp [hPa] vv [km]
30.09.2020 17:00:00 17,2 14,9 15,0 31 17 32 18 SSE 1009,2 10
30.09.2020 16:00:00 16,7 14,1 15,0 34 18 36 19 S 1009,6 10
30.09.2020 15:00:00 16,5 14,3 15,0 35 19 40 21 S 1010,1 10
30.09.2020 14:00:00 16,2 14,3 15,0 37 20 40 21 SSE 1010,8 10
30.09.2020 13:00:00 16,0 14,2 15,0 29 16 36 19 S 1011,2 10
30.09.2020 12:00:00 15,8 13,3 15,0 34 18 36 19 S 1011,6 10
30.09.2020 11:00:00 15,9 13,7 15,0 32 18 36 19 S 1012,3 20
30.09.2020 10:00:00 15,7 13,5 15,0 31 17 36 19 S 1012,6 10
30.09.2020 09:00:00 15,8 13,6 15,0 29 16 36 19 S 1012,8 17
30.09.2020 08:00:00 15,7 13,4 15,0 31 17 36 19 S 1013,0 10
30.09.2020 07:00:00 16,1 11,6 15,0 29 16 32 18 SSW 1012,9 10
30.09.2020 06:00:00 16,1 11,7 15,0 28 15 36 19 SSW 1013,3 10
30.09.2020 05:00:00 16,1 12,4 15,0 35 19 40 21 SSW 1013,8 10
30.09.2020 04:00:00 16,0 12,6 15,0 21 11 25 14 SSW 1014,3 10
30.09.2020 03:00:00 16,0 12,8 15,0 24 13 25 14 SSW 1014,6 10
30.09.2020 02:00:00 15,8 12,1 15,0 26 14 32 18 SSW 1014,8 10
30.09.2020 01:00:00 15,9 12,3 15,0 29 16 32 18 SW 1015,2 10
30.09.2020 00:00:00 16,0 12,4 15,0 29 16 32 18 SW 1015,3 10
29.09.2020 23:00:00 16,1 13,0 15,0 28 15 36 19 SW 1015,5 10
29.09.2020 22:00:00 16,1 13,2 15,0 31 17 36 19 SW 1015,5 10
29.09.2020 21:00:00 16,4 13,9 15,0 29 16 36 19 SW 1015,3 39
29.09.2020 20:00:00 17,0 15,1 15,0 31 17 32 18 SSW 1015,1 10
29.09.2020 19:00:00 16,9 15,2 15,0 31 17 32 18 S 1014,9 10
29.09.2020 18:00:00 15,9 14,4 15,0 24 13 25 14 SSE 1014,8 10
29.09.2020 17:00:00 15,9 12,7 15,0 24 13 25 14 SSE 1015,1 10
29.09.2020 16:00:00 15,7 12,7 15,0 18 10 25 14 S 1015,3 10
29.09.2020 15:00:00 16,0 11,4 15,0 14 8 18 10 S 1015,7 38
29.09.2020 14:00:00 16,0 11,8 15,0 7 4 11 6 S 1016,0 41
29.09.2020 13:00:00 16,1 11,7 15,0 5 3 7 4 SW 1015,9 10
29.09.2020 12:00:00 16,5 11,5 15,0 4 2 11 6 - 1015,9 10
29.09.2020 11:00:00 16,7 11,6 15,0 8 4 11 6 WNW 1015,9 10
29.09.2020 10:00:00 15,4 10,6 15,0 9 5 14 8 NNW 1015,4 10
29.09.2020 09:00:00 15,5 10,4 15,0 13 7 18 10 NNW 1014,8 10
29.09.2020 08:00:00 15,0 9,9 15,0 11 6 14 8 WNW 1014,5 10
29.09.2020 07:00:00 14,9 8,1 15,0 16 9 18 10 WNW 1014,0 10
29.09.2020 06:00:00 14,8 7,5 15,0 14 8 25 14 WNW 1013,9 44
29.09.2020 05:00:00 14,9 7,5 15,0 22 12 25 14 WNW 1013,7 41
29.09.2020 04:00:00 15,0 7,1 15,0 24 13 29 16 WNW 1013,6 10
29.09.2020 03:00:00 14,8 8,3 15,0 24 13 29 16 WNW 1013,3 10
29.09.2020 02:00:00 14,9 9,0 15,0 24 13 25 14 WNW 1013,2 10
29.09.2020 01:00:00 15,1 9,6 15,0 24 13 29 16 WNW 1013,2 10
29.09.2020 00:00:00 14,9 10,2 15,0 28 15 36 19 WNW 1013,1 10
28.09.2020 23:00:00 14,6 10,7 15,0 31 17 36 19 WNW 1013,0 10
28.09.2020 22:00:00 14,6 12,1 16,0 35 19 40 21 WNW 1012,6 10
28.09.2020 21:00:00 14,6 12,7 15,0 39 21 40 21 WNW 1012,2 10
28.09.2020 20:00:00 14,4 13,1 16,0 41 22 43 23 WNW 1011,7 7
28.09.2020 19:00:00 15,0 13,9 16,0 39 21 43 23 NW 1010,7 10
28.09.2020 18:00:00 14,8 13,8 16,0 39 21 43 23 NW 1010,2 10
28.09.2020 17:00:00 14,6 13,9 16,0 44 24 47 25 WNW 1010,0 5
28.09.2020 16:00:00 15,3 14,3 16,0 42 23 43 23 NW 1009,7 6
28.09.2020 15:00:00 15,8 14,6 16,0 37 20 40 21 NW 1009,5 10
28.09.2020 14:00:00 15,9 14,8 16,0 39 21 43 23 NW 1009,5 10
28.09.2020 13:00:00 16,2 14,8 16,0 39 21 - - NW 1009,3 10
28.09.2020 12:00:00 16,0 15,0 16,0 39 21 43 23 NW 1009,0 8
28.09.2020 11:00:00 16,2 15,3 16,0 36 19 40 21 NW 1008,8 11
28.09.2020 10:00:00 16,4 15,1 16,0 37 20 40 21 NNW 1008,4 10
28.09.2020 09:00:00 16,3 15,0 16,0 39 21 43 23 NNW 1008,2 10
28.09.2020 08:00:00 16,3 15,0 16,0 42 23 47 25 NNW 1008,1 10
28.09.2020 07:00:00 16,3 15,2 16,0 39 21 43 23 NNW 1007,8 10
28.09.2020 06:00:00 16,5 15,4 16,0 39 21 43 23 NNW 1007,8 10
28.09.2020 05:00:00 16,8 15,7 16,0 34 18 40 21 NNW 1007,7 9
28.09.2020 04:00:00 16,7 16,1 15,5 35 19 36 19 NNW 1008,0 2,9
28.09.2020 03:00:00 16,2 15,9 16,0 15 8 18 10 NW 1008,2 2,6
28.09.2020 02:00:00 15,9 15,4 16,0 11 6 14 8 WNW 1008,4 6
28.09.2020 01:00:00 15,5 15,0 16,0 4 2 7 4 - 1008,6 10
28.09.2020 00:00:00 15,1 14,7 15,5 9 5 18 10 ESE 1008,5 5
27.09.2020 23:00:00 15,6 15,2 16,0 44 24 47 25 NNW 1008,1 2,7
27.09.2020 22:00:00 16,4 16,0 16,0 46 25 50 27 NNW 1007,4 2,4
27.09.2020 21:00:00 16,7 16,0 16,0 44 24 47 25 NNW 1007,2 4,5
27.09.2020 20:00:00 16,5 15,9 15,5 46 25 50 27 NNW 1007,0 7
27.09.2020 19:00:00 16,4 15,7 16,0 43 23 50 27 NNW 1006,7 7
27.09.2020 18:00:00 16,8 15,9 16,0 44 24 50 27 NNW 1006,4 7
27.09.2020 17:00:00 17,0 15,9 16,0 44 24 50 27 NNW 1006,0 10
27.09.2020 16:00:00 16,9 14,7 16,0 28 15 32 18 N 1005,8 10
27.09.2020 15:00:00 16,6 13,9 16,0 34 18 40 21 N 1005,5 10
27.09.2020 14:00:00 16,5 13,4 16,0 32 18 40 21 NNE 1005,1 25
27.09.2020 13:00:00 16,7 14,6 15,5 50 27 61 33 N 1004,6 7
27.09.2020 12:00:00 16,8 15,5 16,0 54 29 65 35 NNW 1003,7 10
27.09.2020 11:00:00 16,6 15,1 16,0 63 34 76 41 N 1003,0 10
27.09.2020 10:00:00 16,2 14,5 16,0 68 37 79 43 N 1002,7 8
27.09.2020 09:00:00 16,0 14,4 16,0 70 38 79 43 NNW 1001,8 8
27.09.2020 08:00:00 15,3 14,4 16,0 78 42 86 47 NNW 1001,1 3,1
27.09.2020 07:00:00 15,4 13,7 16,0 80 43 90 49 NNW 1000,6 6
27.09.2020 06:00:00 14,6 13,5 16,0 80 43 86 47 NNW 1000,5 4,1
27.09.2020 05:00:00 14,0 13,2 15,6 68 37 83 45 NNW 1000,7 4,3
27.09.2020 04:00:00 13,7 13,3 15,7 68 37 79 43 NNW 1001,1 3,9
27.09.2020 03:00:00 14,5 12,4 15,7 67 36 79 43 NNW 1001,3 5
27.09.2020 02:00:00 14,5 11,3 16,0 70 38 79 43 NNW 1002,1 10
27.09.2020 01:00:00 14,9 10,5 16,0 72 39 79 43 NNW 1002,5 10
27.09.2020 00:00:00 15,0 10,4 16,0 70 38 76 41 NNW 1002,9 10
26.09.2020 23:00:00 15,0 10,8 16,0 65 35 72 39 NNW 1003,3 10
26.09.2020 22:00:00 15,3 11,8 16,0 63 34 68 37 NNW 1003,4 10
26.09.2020 21:00:00 14,4 12,3 16,0 55 30 68 37 N 1003,5 10
26.09.2020 20:00:00 15,5 12,7 16,0 48 26 68 37 N 1003,1 10
26.09.2020 19:00:00 15,2 12,8 15,7 46 25 58 31 NNW 1001,6 10
26.09.2020 18:00:00 14,6 11,4 15,7 39 21 58 31 NNW 1002,4 9
26.09.2020 17:00:00 15,5 9,6 16,0 43 23 50 27 NNW 1002,1 28
26.09.2020 16:00:00 15,7 9,1 16,0 29 16 36 19 N 1002,2 10
26.09.2020 15:00:00 15,6 8,9 16,0 29 16 32 18 N 1001,8 10
26.09.2020 14:00:00 15,1 8,1 16,0 29 16 40 21 N 1001,0 10
26.09.2020 13:00:00 14,4 11,4 16,0 46 25 68 37 WNW 1000,3 10
26.09.2020 12:00:00 13,6 11,3 16,0 61 33 76 41 WNW 1000,6 10
26.09.2020 11:00:00 13,4 10,3 16,0 68 37 76 41 NW 1000,4 4,9
26.09.2020 10:00:00 13,2 10,9 16,0 65 35 79 43 NW 1000,1 3,3
26.09.2020 09:00:00 13,4 10,8 15,7 72 39 79 43 NW 999,8 5
26.09.2020 08:00:00 13,5 10,0 16,0 65 35 79 43 NW 999,4 9
26.09.2020 07:00:00 13,1 11,1 15,8 70 38 83 45 NW 999,2 4,8
26.09.2020 06:00:00 13,6 10,0 15,8 78 42 86 47 NW 998,7 8
26.09.2020 05:00:00 14,0 10,0 15,8 81 44 90 49 NW 998,0 10
26.09.2020 04:00:00 13,6 10,7 16,0 46 25 79 43 NNW 997,1 4,7
26.09.2020 03:00:00 13,1 11,8 16,0 48 26 83 45 NNW 997,0 4,5
26.09.2020 02:00:00 12,8 10,2 16,0 80 43 90 49 NW 996,3 3,4
26.09.2020 01:00:00 13,2 11,3 16,0 72 39 94 51 WNW 995,0 3,3
26.09.2020 00:00:00 12,9 10,6 15,9 91 49 97 53 WNW 993,7 4,0
25.09.2020 23:00:00 13,2 11,2 16,0 89 48 104 56 WNW 993,2 3,0
25.09.2020 22:00:00 12,5 10,0 16,0 94 51 112 60 WNW 993,8 4,2
25.09.2020 21:00:00 13,1 9,4 16,0 96 52 108 58 WNW 993,6 5
25.09.2020 20:00:00 13,3 9,6 16,1 85 46 101 54 WNW 992,6 8
25.09.2020 19:00:00 14,1 10,4 16,0 81 44 94 51 WNW 991,8 5
25.09.2020 18:00:00 13,2 10,8 16,0 76 41 97 53 W 991,2 4,7
25.09.2020 17:00:00 12,5 10,3 16,0 87 47 97 53 W 992,2 5
25.09.2020 16:00:00 12,7 10,2 16,2 81 44 90 49 W 991,4 5
25.09.2020 15:00:00 12,2 10,1 16,0 81 44 86 47 W 991,7 9
25.09.2020 14:00:00 12,4 8,9 16,0 65 35 83 45 W 992,0 12
25.09.2020 13:00:00 11,5 9,5 16,0 68 37 79 43 W 991,9 5
25.09.2020 12:00:00 11,6 9,3 16,2 74 40 79 43 WSW 992,1 5
25.09.2020 11:00:00 11,7 7,2 16,2 63 34 72 39 WSW 992,6 10
25.09.2020 10:00:00 11,7 6,9 16,0 48 26 54 29 WSW 992,9 10
25.09.2020 09:00:00 11,7 6,4 16,0 43 23 54 29 WSW 992,5 44
25.09.2020 08:00:00 12,9 6,5 16,0 46 25 54 29 WSW 992,2 10
25.09.2020 07:00:00 12,9 7,6 16,0 42 23 47 25 SW 992,1 10
25.09.2020 06:00:00 11,6 7,3 16,0 50 27 65 35 WSW 992,1 10
25.09.2020 05:00:00 13,0 7,1 16,0 44 24 54 29 SSW 992,3 10
25.09.2020 04:00:00 12,6 8,4 16,0 41 22 50 27 S 992,4 10
25.09.2020 03:00:00 12,9 6,7 16,0 44 24 58 31 SW 993,0 10
25.09.2020 02:00:00 12,8 7,6 16,0 47 25 61 33 SW 993,3 48
25.09.2020 01:00:00 12,2 9,0 16,3 41 22 50 27 SW 993,0 10
25.09.2020 00:00:00 13,4 9,8 16,0 18 10 25 14 S 993,4 10
24.09.2020 23:00:00 12,8 10,2 16,0 5 3 25 14 W 993,7 10
24.09.2020 22:00:00 12,3 10,4 16,0 34 18 58 31 W 994,3 5
24.09.2020 21:00:00 14,3 8,1 16,0 29 16 36 19 SSE 994,5 10
24.09.2020 20:00:00 15,7 9,5 16,0 24 13 32 18 SSE 995,4 10
24.09.2020 19:00:00 15,6 9,0 16,0 28 15 40 21 S 996,3 10
24.09.2020 18:00:00 15,5 9,5 16,4 39 21 50 27 S 997,1 10
24.09.2020 17:00:00 15,4 9,4 17,0 39 21 47 25 S 997,9 10

tt = temperature
td = dewpoint
tw = water temperature
ff = wind speed
fx = gusts
dd = wind direction
ppp = reduced air pressure
vv = visibility

Next stations